sat.trackr.live / text

‹ back to catalog

STARLINK-3515

NORAD 51738 · 2022-016AA

PAYLOAD ACTIVE UNKNOWN

§ Identity

Operator
Country
US
Launch date
2022-02-21
Launch site
AFETR
Launch vehicle
Mass (kg)
RCS (m²)

Purposes: comms

External: N2YO · Heavens-Above · Gunter

§ Orbital elements

Epoch: 2026-05-24T22:42:11.549664Z

Period
95.44 min
Inclination
53.2140°
Eccentricity
0.0001200
Mean motion
15.08835645 rev/d
Perigee alt
538.9 km
Apogee alt
540.6 km
Semi-major
6,917.9 km
B*
9.6373e-6
RAAN
336.7911°
Arg perigee
83.5900°
Mean anomaly
276.5228°
Rev number
23,507

§ Raw data

STARLINK-35151 51738U 22016AA  26144.94596701 -.00000134  00000+0  96373-5 0  99942 51738  53.2140 336.7911 0001200  83.5900 276.5228 15.08835645235073

JSON: /api/v1/satellites/51738 · /tle

For live sub-satellite position, see the globe view (requires WebGL).

§ Visibility from observer

Set your observer location to see the next 7 days of passes ≥ 10°. The values pass through the URL so the page stays shareable.

No JS? Fill the form by hand. The geolocation button needs JavaScript.